Flag for U.S.A. Weather past 2 weeks in Angels Camp, California, U.S.A.

Now
63 °F

Clear.


Feels Like: 63 °F
Forecast: 49 / 78 °F
Wind: No wind

Location: Modesto City-County-Sham Field

Current Time: Oct 22, 2014 at 8:22:47 PM

Latest Report: Oct 22, 2014 at 7:53 PM


Visibility: 10 mi

Pressure: 30.01 "Hg

Humidity: 54%

Dew point: 46 °F

Location of Angels CampLocation

Historic Weather in Angels Camp — Graph

°F

Angels Camp temperature yesterday

Maximum temperature yesterday: 71 °F (at 2:53 PM)
Minimum temperature yesterday: 51 °F (at 7:53 AM)
Average temperature yesterday: 61 °F

Past Weeks' High & Low Weather Summary

 TemperatureHumidityPressure
High94 °F (Oct 8, 2:53 PM)93% (Oct 19, 5:53 AM)30.09 "Hg (Oct 19, 5:53 AM)
Low51 °F (Oct 21, 7:53 AM)12% (Oct 8, 3:53 PM)29.76 "Hg (Oct 14, 2:53 PM)
Average68 °F53%29.93 "Hg
* Reported Oct 7 6:53 PM — Oct 22 6:53 PM, Angels Camp, Weather by CustomWeather, © 2014

Note: Actual official high and low records may vary slightly from our data, if they occured in-between our weather recording intervals... More about our weather records

Advertising

Angels Camp weather history for previous 24 hours

 ConditionsComfort  
Time TempWeatherWind HumidityBarometerVisibility
6:53 PM
Oct 22
66 °FSunny.No wind47%30.00 "Hg10 mi
5:53 PM74 °FSunny.6 mph28%29.99 "Hg10 mi
4:53 PM75 °FSunny.8 mph26%29.99 "Hg10 mi
3:53 PM75 °FSunny.6 mph27%30.00 "Hg10 mi
2:53 PM75 °FSunny.10 mph30%30.01 "Hg10 mi
1:53 PM74 °FSunny.8 mph33%30.03 "Hg10 mi
12:53 PM72 °FSunny.8 mph35%30.04 "Hg10 mi
11:53 AM68 °FSunny.5 mph42%30.06 "Hg10 mi
10:53 AM65 °FSunny.6 mph51%30.06 "Hg10 mi
9:53 AM61 °FSunny.3 mph60%30.06 "Hg10 mi
8:53 AM56 °FSunny.3 mph77%30.05 "Hg10 mi
7:53 AM54 °FClear.5 mph83%30.03 "Hg10 mi
6:53 AM54 °FClear.7 mph83%30.02 "Hg10 mi
5:53 AM54 °FClear.6 mph80%30.02 "Hg10 mi
4:53 AM52 °FClear.7 mph86%30.01 "Hg10 mi
3:53 AM53 °FClear.6 mph83%30.02 "Hg10 mi
2:53 AM55 °FClear.6 mph74%30.02 "Hg10 mi
1:53 AM56 °FClear.7 mph75%30.03 "Hg10 mi
12:53 AM57 °FClear.7 mph72%30.02 "Hg10 mi
11:53 PM
Oct 21
58 °FClear.6 mph67%30.02 "Hg10 mi
10:53 PM59 °FClear.7 mph64%30.01 "Hg10 mi
9:53 PM61 °FClear.12 mph58%30.01 "Hg10 mi
8:53 PM62 °FClear.9 mph46%30.00 "Hg10 mi
Weather by CustomWeather, © 2014

See weather overviewHow to use our weather pages